Theta_e
317 314 311 311 312 315 318 319 320 319 319 318 317 316 314 312 311 311 316 317 316 316 313 314 317 318 317 315 318 313 314 313 316 327 327 323 324 321 319 323 323 324 324 326 335
316 318 315 312 312 311 314 317 318 318 317 315 313 311 309 307 307 311 313 316 316 315 313 317 318 318 314 314 316 313 312 315 320 322 323 322 322 320 323 324 323 326 327 333 336
316 315 316 316 313 311 310 311 312 312 311 310 308 307 306 306 313 312 317 316 315 313 312 314 316 317 316 314 317 315 314 317 323 325 320 321 321 320 320 323 322 326 327 327 331
314 316 315 317 316 313 311 310 310 309 308 308 307 307 305 313 303 319 317 319 321 320 313 315 316 317 315 315 316 319 317 321 323 322 323 323 322 322 320 321 320 319 320 321 320
314 314 316 316 318 316 314 313 311 310 309 309 308 308 308 311 312 315 318 322 322 321 319 315 316 315 315 313 318 319 318 323 322 321 321 321 322 321 321 317 317 317 318 317 317
315 314 315 315 317 317 316 313 311 311 310 310 310 308 315 309 313 313 316 321 321 321 317 315 315 314 315 314 316 319 318 321 322 322 320 322 321 319 320 316 317 317 317 316 317
315 315 314 315 315 317 317 314 311 310 310 310 310 310 313 309 312 312 313 318 321 322 320 315 320 315 314 318 319 318 319 317 320 320 320 317 317 319 317 316 316 316 315 315 315
313 315 314 314 314 315 317 316 313 313 312 310 311 315 311 311 313 311 311 316 321 322 323 321 321 318 319 317 317 318 314 317 315 319 318 313 313 309 309 310 313 314 314 314 314
310 313 314 313 313 315 315 315 315 315 313 313 313 313 314 314 312 312 312 315 322 322 323 322 322 318 318 317 317 316 312 314 313 316 317 314 310 309 313 312 310 311 311 312 312
310 313 315 313 313 313 315 315 316 316 315 314 315 315 313 312 313 313 311 315 320 320 320 320 316 319 317 316 316 317 316 314 312 317 317 317 314 312 312 314 314 312 312 312 312
310 310 315 312 312 312 315 315 314 315 315 314 314 313 312 313 312 312 312 316 319 319 318 318 317 319 320 317 314 314 315 314 312 317 317 316 316 315 314 312 312 313 312 311 311
310 310 310 313 312 311 315 314 313 313 315 313 313 313 312 313 314 312 312 317 319 318 317 318 315 316 317 318 317 317 317 316 317 317 317 316 316 314 313 314 312 312 311 311 308
305 309 309 314 312 312 314 313 313 313 312 313 312 314 312 313 313 312 313 315 317 316 316 316 315 315 315 315 317 316 316 316 316 316 315 312 310 310 310 312 312 311 310 310 309
306 308 310 310 314 312 313 313 312 310 309 311 315 313 312 312 313 312 314 314 315 316 314 316 314 316 317 317 315 317 315 316 318 317 316 313 311 311 311 311 313 312 308 308 306
308 305 308 311 311 312 312 312 311 309 315 308 313 312 311 312 311 313 313 312 314 316 314 314 315 315 317 317 316 317 316 316 317 318 316 315 312 309 310 312 312 309 308 306 304
304 306 305 309 313 311 312 312 310 311 314 312 313 315 315 313 313 313 313 312 312 313 313 314 314 314 315 315 314 315 316 316 315 314 312 315 310 306 312 312 310 310 307 305 302
303 306 305 308 311 312 311 310 312 316 306 313 314 316 314 314 316 315 315 315 315 316 315 316 316 316 315 317 316 316 315 315 310 316 314 311 314 311 309 310 310 311 306 303 301
303 303 307 307 306 311 311 312 316 308 307 310 313 313 314 314 314 316 315 316 313 314 315 316 317 317 315 316 318 317 315 312 310 315 314 311 315 311 309 309 309 310 306 302 300
302 303 305 307 308 311 313 314 314 305 305 312 313 314 314 315 315 315 314 313 313 312 314 313 314 313 315 314 316 318 319 313 314 301 310 310 310 308 310 310 308 306 304 302 300
302 303 304 306 308 311 311 313 310 305 308 310 312 314 315 315 316 314 315 313 313 312 311 313 315 313 314 314 313 316 314 317 313 307 310 309 310 309 309 309 308 305 304 302 300
301 303 305 305 308 312 312 310 307 305 308 307 307 310 311 314 312 314 315 311 312 313 311 310 313 315 314 317 316 315 315 315 313 309 311 311 310 304 310 308 308 306 305 302 300
302 304 303 308 311 308 309 305 307 307 306 306 306 306 308 312 312 313 314 310 311 312 315 311 314 318 317 311 312 313 314 314 312 311 308 310 310 307 307 307 307 306 305 303 301
298 301 304 311 311 308 304 308 307 308 305 306 306 307 307 310 312 310 310 309 309 312 314 312 313 314 315 314 310 315 314 313 311 310 314 312 309 305 305 305 306 306 305 303 301
299 304 301 308 302 306 307 308 308 306 306 305 305 307 308 309 307 309 309 308 309 311 312 312 312 311 311 311 311 313 313 312 313 311 313 312 311 309 308 308 306 305 304 303 302
296 300 299 304 303 308 308 307 309 308 306 305 306 307 307 305 307 307 308 308 309 312 312 311 313 311 310 309 309 311 311 311 313 313 313 311 310 309 308 307 306 304 304 303 302
299 300 299 302 304 307 308 308 308 305 304 305 306 306 307 308 306 308 308 308 310 309 312 310 311 312 310 309 307 307 307 309 310 309 310 310 310 307 306 304 303 302 301 300 300
297 300 301 305 306 308 306 308 307 305 304 304 306 307 307 307 306 306 306 306 307 309 310 310 304 303 301 303 303 300 302 305 306 306 307 308 307 305 303 301 300 299 299 299 299
Wind_Speed
25 24 24 23 22 20 18 16 13 12 10 8 7 6 5 7 7 4 4 5 4 8 10 13 8 14 6 4 4 3 4 2 5 7 5 3 5 0 2 6 3 1 6 7 20
26 24 24 23 22 21 20 17 16 14 11 9 8 6 5 6 6 6 7 8 9 10 8 7 5 11 4 4 4 4 3 5 2 2 6 5 5 7 4 4 4 4 5 19 19
24 26 25 24 22 22 20 19 17 14 12 10 8 6 4 3 2 3 2 2 6 8 7 3 5 2 2 3 2 3 4 2 2 4 5 8 5 3 10 2 6 10 9 9 12
26 25 25 25 23 22 21 19 17 15 13 11 9 6 4 4 6 1 2 2 2 4 6 4 2 2 2 2 2 2 3 1 3 6 3 3 4 4 4 5 4 11 9 8 8
26 26 25 25 25 23 21 20 17 16 13 11 9 6 5 2 5 3 2 2 1 2 4 3 4 4 5 3 1 3 1 2 1 5 4 3 4 1 4 5 7 10 10 9 8
27 26 26 26 26 25 23 20 18 16 14 11 9 8 3 4 3 3 2 1 3 1 2 4 4 3 2 2 4 2 2 0 1 3 5 3 2 4 3 4 5 7 7 7 7
26 26 29 27 26 25 22 21 19 16 14 12 9 7 1 7 3 2 5 3 2 3 1 3 1 2 0 3 1 2 3 4 1 2 1 3 7 6 6 3 3 6 7 6 5
24 27 29 30 28 26 24 21 19 17 14 11 9 4 4 5 6 3 6 4 3 2 2 2 2 2 2 0 5 3 5 1 3 4 2 4 8 4 8 5 10 6 6 5 4
29 28 31 30 31 28 26 22 20 17 14 12 8 3 4 3 6 10 8 4 3 3 4 3 3 2 3 5 3 3 3 5 6 7 4 4 6 5 3 1 8 7 7 6 4
39 24 33 32 32 31 27 24 19 17 15 11 3 1 3 4 4 7 8 3 2 4 3 3 3 2 3 3 6 5 3 4 5 4 4 4 9 8 8 5 7 7 7 7 6
33 36 30 36 32 31 28 21 9 4 8 4 8 3 5 6 6 5 7 5 3 4 4 2 4 8 10 6 4 5 3 4 3 3 5 6 7 10 11 7 8 9 8 7 3
20 35 29 37 36 34 36 11 12 11 6 3 2 3 5 5 3 2 8 5 4 4 4 3 6 7 4 5 3 0 1 3 1 1 2 4 10 11 10 10 11 13 9 8 7
24 24 42 33 37 36 37 26 28 26 5 4 3 4 4 6 4 8 9 5 4 6 5 6 4 10 6 5 6 4 5 2 1 2 2 4 8 5 6 11 9 7 7 6 14
25 27 26 30 34 37 30 32 31 10 4 5 8 6 5 6 3 10 14 5 5 9 7 4 5 7 5 6 6 6 6 5 3 3 3 3 5 5 5 6 2 6 6 9 11
25 26 27 29 22 35 33 32 24 5 5 9 8 8 10 10 8 5 8 1 7 8 7 7 4 5 4 5 4 4 4 6 4 2 3 1 1 7 3 6 3 5 7 8 8
26 27 26 34 21 36 41 34 15 5 8 6 7 12 11 7 5 4 4 1 4 4 3 5 1 5 8 3 5 5 5 5 4 3 3 8 7 5 3 4 3 4 5 7 8
23 26 27 32 14 42 45 19 9 8 2 9 8 13 18 11 7 7 14 8 7 7 7 3 2 1 2 6 1 3 5 2 3 1 6 1 4 6 6 3 7 12 9 8 7
23 23 28 31 40 46 36 10 10 7 8 3 10 18 13 16 8 7 14 11 7 2 7 7 5 8 5 6 6 7 5 5 7 5 3 2 6 5 5 3 1 5 8 8 6
20 24 24 26 34 45 15 17 9 7 9 13 14 17 8 14 7 8 13 16 11 8 6 6 5 0 1 4 9 5 5 5 4 3 2 4 5 8 2 5 5 7 7 5 6
18 17 29 29 34 27 15 10 6 7 14 18 9 9 12 19 9 12 16 15 7 9 4 6 3 2 2 3 2 5 7 2 2 2 4 3 3 4 2 4 3 6 7 8 6
14 5 18 36 37 12 17 10 5 9 16 7 7 7 7 16 9 15 16 3 17 12 6 3 4 2 5 7 9 4 3 3 4 4 3 1 4 5 2 3 8 8 8 8 9
5 10 11 40 17 11 9 11 7 17 3 5 5 6 12 14 9 9 10 4 16 12 9 2 3 3 5 2 4 3 5 6 4 4 3 3 4 1 0 4 7 8 6 5 6
4 5 10 42 14 11 8 6 8 18 6 6 5 4 6 10 5 5 6 6 12 11 14 5 4 2 2 3 3 4 4 4 4 2 5 4 4 1 7 7 6 6 6 7 9
4 5 2 5 1 12 15 15 10 1 3 5 6 8 10 11 4 7 5 1 5 8 9 11 4 5 5 2 5 5 6 7 6 4 3 7 3 5 4 3 4 4 7 8 7
2 3 2 4 5 14 11 15 22 7 1 5 4 8 10 6 4 5 4 3 5 11 5 6 5 6 3 5 4 4 11 15 15 13 10 3 7 7 9 6 7 7 3 3 7
4 3 2 3 15 17 12 16 27 7 7 5 11 11 6 12 8 10 8 4 5 2 5 8 2 3 1 3 1 3 6 7 6 4 7 8 13 8 9 6 7 8 8 8 9
4 2 3 9 13 10 4 17 23 12 6 7 18 14 7 10 7 5 3 6 11 10 5 8 6 3 3 1 2 6 7 7 5 6 8 8 10 4 7 7 8 8 8 9 10
Wind_Direction
228 224 222 222 218 217 217 213 213 215 218 227 238 253 276 294 299 286 256 249 280 305 325 325 321 355 340 344 360 78 57 193 194 157 212 208 124 269 91 106 54 106 156 188 165
229 224 220 217 218 214 214 214 211 213 217 229 242 257 275 295 296 250 244 252 274 291 313 354 347 348 356 337 2 84 112 228 265 219 199 169 134 156 110 110 33 55 60 139 160
232 228 221 217 214 214 212 211 211 213 216 222 231 242 252 270 305 243 193 259 292 278 258 275 304 330 2 348 326 156 184 232 284 313 207 151 134 156 127 195 184 174 176 167 172
225 229 224 218 213 211 209 208 207 206 211 214 221 218 211 184 216 170 155 354 303 258 207 202 233 156 172 209 273 210 16 284 326 341 4 104 141 120 155 178 192 171 160 161 172
225 221 223 219 212 210 205 207 207 205 204 204 202 187 168 203 240 181 195 40 81 152 206 189 174 163 183 201 179 157 256 60 56 32 41 17 51 128 208 147 95 132 151 160 175
230 223 218 216 213 208 208 203 202 202 195 194 190 176 170 211 173 215 219 111 93 88 198 207 194 230 224 233 159 126 225 40 247 8 15 32 314 21 256 156 155 142 175 175 174
231 226 217 215 211 207 203 201 196 195 190 183 179 161 123 227 196 273 200 182 127 38 16 211 253 163 100 119 148 87 71 346 241 163 25 41 306 234 260 313 141 196 189 185 220
233 225 223 215 211 205 198 198 193 190 187 171 171 158 228 221 202 205 195 183 145 89 92 128 64 124 115 142 26 78 60 75 284 164 162 128 258 261 280 270 267 230 210 226 270
246 229 224 216 210 201 197 195 189 188 177 169 166 163 248 210 210 214 189 171 122 104 83 63 53 130 56 98 43 3 193 207 305 198 137 159 267 267 356 117 260 234 244 245 253
227 234 218 216 212 200 192 185 185 173 169 158 146 177 243 219 182 195 195 160 131 109 58 75 53 100 115 134 200 189 202 233 219 208 146 204 260 286 285 320 284 251 222 222 219
229 234 212 208 203 200 182 153 140 173 189 187 187 185 132 143 129 184 177 140 101 94 154 163 115 204 198 154 117 130 180 231 236 231 152 220 259 264 274 288 272 265 247 237 154
223 225 245 209 205 199 178 178 171 137 166 239 187 105 145 150 108 192 171 132 132 164 133 69 220 221 211 209 203 208 189 265 40 347 147 270 262 252 245 248 224 233 232 231 130
228 210 227 209 200 190 183 181 174 155 121 216 207 160 177 153 188 198 153 142 130 144 176 171 238 200 191 194 193 194 177 200 68 347 290 341 288 270 273 244 232 216 202 193 160
220 218 209 226 192 185 190 177 174 185 92 210 195 226 161 143 252 173 187 147 173 177 153 229 251 178 176 201 151 178 196 158 121 56 241 41 288 298 272 297 214 201 138 125 131
214 221 213 213 168 188 178 167 174 96 209 184 170 175 152 160 139 208 178 351 172 161 137 228 209 184 173 184 150 194 171 173 142 141 13 212 233 273 281 286 223 124 125 121 119
225 219 222 212 209 184 174 170 127 151 224 166 147 167 154 171 160 128 143 280 161 120 110 202 231 179 187 123 152 153 90 54 65 83 300 205 175 274 225 213 118 124 130 133 133
227 216 211 202 230 170 163 148 185 196 207 178 168 166 173 168 144 180 177 180 163 151 179 156 254 246 168 108 109 128 115 53 2 213 232 119 171 262 277 244 179 169 164 160 149
226 225 210 206 219 164 162 174 204 139 185 160 149 159 176 159 179 176 166 179 237 127 130 162 197 189 192 173 169 176 178 158 195 191 236 79 219 247 264 306 31 136 135 138 153
216 225 222 211 202 172 176 195 176 179 145 143 140 164 166 176 151 167 190 193 200 188 145 149 229 311 152 138 148 184 192 170 99 20 60 221 287 308 121 52 88 122 114 132 169
216 219 220 211 199 203 185 188 181 159 134 137 148 178 171 176 161 180 181 198 192 182 231 186 115 220 149 108 85 166 150 109 60 156 242 271 270 237 308 220 117 129 157 193 198
205 226 217 207 193 205 196 187 160 179 133 135 145 137 156 177 181 184 186 210 185 186 160 158 108 169 150 214 171 148 177 179 141 161 178 191 255 215 253 193 163 190 201 198 204
209 227 198 185 192 192 182 154 176 162 151 116 109 108 161 165 174 179 188 185 191 179 172 154 81 179 191 337 248 169 174 165 143 225 239 142 267 98 340 159 163 191 216 233 234
206 212 229 185 187 166 135 144 152 160 150 148 134 131 159 153 137 182 187 222 174 182 173 153 126 174 121 296 359 198 206 169 130 95 206 153 251 76 109 101 115 141 177 211 225
183 168 284 209 190 142 135 147 134 154 90 100 115 108 108 157 80 168 142 62 157 162 115 131 171 207 197 151 130 198 189 200 190 208 162 221 220 269 273 141 188 280 253 243 242
224 236 179 149 144 145 128 146 143 147 252 163 65 148 137 128 109 131 117 105 44 146 96 118 199 189 141 133 135 201 214 213 216 226 230 192 220 232 275 277 247 239 260 268 273
144 185 131 100 138 134 134 167 157 154 158 198 135 143 135 153 172 169 135 146 161 152 123 163 183 168 334 358 210 222 220 207 218 203 249 242 258 231 254 253 273 287 286 290 280
227 175 95 144 149 144 165 161 159 137 30 137 136 128 125 158 115 90 79 130 158 146 136 177 136 125 231 292 73 316 214 201 203 206 201 223 229 249 250 250 255 261 259 261 269